Valentine, NE

5:19 PM CDT on July 21, 2017 (GMT -0500)
Miller Field

Weather History for KVTN - August, 2013

Change the Weather History Date:

Wednesday, August 7, 2013

  Actual Average Record
Temperature  
Mean Temperature 71 °F 74 °F  
Max Temperature 85 °F 88 °F 104 °F (2001)
Min Temperature 57 °F 61 °F 40 °F (1989)
Degree Days  
Heating Degree Days 0 0  
Month to date heating degree days 0 0  
Since 1 June heating degree days 57 69  
Since 1 July heating degree days 3 8  
Cooling Degree Days 6 10  
Month to date cooling degree days 46 70  
Year to date cooling degree days 523 545  
Since 1 June cooling degree days 484 511  
Growing Degree Days 20 (Base 50)    
Moisture  
Dew Point 58 °F    
Average Humidity 65    
Maximum Humidity 93    
Minimum Humidity 37    
Precipitation  
Precipitation T in 0.09 in 1.77 in (1910)
Month to date precipitation 1.09 0.64  
Year to date precipitation 16.72 14.57  
Snow  
Snow 0.00 in 0.00 in 0.00 in ()
Month to date snowfall 0.0 0.0  
Since 1 June snowfall 0.0 0.0  
Since 1 July snowfall 0.0 0.0  
Snow Depth 0.00 in    
Sea Level Pressure  
Sea Level Pressure 29.97 in    
Wind  
Wind Speed 6 mph (SW)    
Max Wind Speed 18 mph    
Max Gust Speed 23 mph    
Visibility 10 miles    
Events Rain    
T = Trace of Precipitation, MM = Missing Value Source: NWS Daily Summary

Daily Weather History Graph

Daily Weather History Graph

Search for Another Location

Airport or City:

Trip Planner

Search our weather history database for the weather conditions in past years. The results will help you decide how hot, cold, wet, or windy it might be!

Date:

Astronomy

Aug. 07, 2013 Rise Set
Actual Time 6:40 AM CDT 8:55 PM CDT
Civil Twilight 6:08 AM CDT 9:26 PM CDT
Nautical Twilight 5:29 AM CDT 10:05 PM CDT
Astronomical Twilight 4:46 AM CDT 10:47 PM CDT
Moon 7:33 AM CDT (8/7) 8:59 PM CDT (8/7)
Length of Visible Light 15h 17m
Length of Day
14h 15m
New Moon, 1% of the Moon is Illuminated
Aug 7
New Moon
Aug 14
First Quarter
Aug 20
Full
Aug 28
Last Quarter
Sep 5
New

Hourly Weather History & Observations

Time (CDT) Temp. Heat Index Dew Point Humidity Pressure Visibility Wind Dir Wind Speed Gust Speed Precip Events Conditions
12:52 AM 63.0 °F - 59.0 °F 87% 29.96 in 10.0 mi WNW 4.6 mph - N/A   Clear
1:52 AM 61.0 °F - 57.9 °F 90% 29.96 in 10.0 mi WNW 3.5 mph - N/A   Clear
2:52 AM 61.0 °F - 57.9 °F 90% 29.95 in 10.0 mi WNW 3.5 mph - N/A   Partly Cloudy
3:52 AM 61.0 °F - 57.9 °F 90% 29.96 in 10.0 mi SW 5.8 mph - N/A   Scattered Clouds
4:52 AM 60.1 °F - 57.9 °F 93% 29.96 in 10.0 mi West 4.6 mph - N/A   Partly Cloudy
5:52 AM 57.9 °F - 55.9 °F 93% 29.96 in 10.0 mi WSW 5.8 mph - N/A   Clear
6:52 AM 57.9 °F - 55.9 °F 93% 29.96 in 10.0 mi Calm Calm - N/A   Clear
7:52 AM 62.1 °F - 59.0 °F 90% 29.98 in 10.0 mi WSW 3.5 mph - N/A   Clear
8:52 AM 66.9 °F - 59.0 °F 76% 29.99 in 10.0 mi WSW 8.1 mph - N/A   Clear
9:52 AM 72.0 °F - 59.0 °F 64% 29.99 in 10.0 mi WSW 5.8 mph - N/A   Clear
10:52 AM 78.1 °F - 57.9 °F 50% 30.00 in 10.0 mi WSW 3.5 mph - N/A   Clear
11:52 AM 81.0 °F 80.5 °F 54.0 °F 39% 29.99 in 10.0 mi North 3.5 mph - N/A   Clear
12:52 PM 82.0 °F 81.4 °F 55.0 °F 39% 29.99 in 10.0 mi SSW 4.6 mph - N/A   Clear
1:52 PM 84.0 °F 82.9 °F 55.0 °F 37% 29.99 in 10.0 mi SE 4.6 mph - N/A   Scattered Clouds
2:52 PM 84.0 °F 82.9 °F 55.0 °F 37% 29.97 in 10.0 mi SE 4.6 mph - N/A   Partly Cloudy
3:52 PM 82.9 °F 82.0 °F 55.0 °F 38% 29.97 in 10.0 mi South 5.8 mph - N/A   Scattered Clouds
4:52 PM 82.0 °F 81.6 °F 55.9 °F 41% 29.95 in 10.0 mi South 13.8 mph - N/A   Scattered Clouds
5:52 PM 80.1 °F 80.6 °F 57.9 °F 47% 29.96 in 10.0 mi South 10.4 mph - N/A   Partly Cloudy
6:52 PM 75.9 °F - 60.1 °F 58% 29.94 in 10.0 mi South 11.5 mph - 0.00 in Rain Light Rain
7:52 PM 75.0 °F - 61.0 °F 62% 29.97 in 10.0 mi WSW 15.0 mph 19.6 mph 0.00 in   Scattered Clouds
8:52 PM 71.1 °F - 60.1 °F 68% 29.95 in 10.0 mi Calm Calm - N/A   Clear
9:52 PM 68.0 °F - 61.0 °F 78% 29.95 in 10.0 mi East 4.6 mph - N/A   Clear
10:52 PM 66.0 °F - 62.1 °F 87% 29.97 in 10.0 mi ESE 5.8 mph - N/A   Partly Cloudy
11:52 PM 64.9 °F - 61.0 °F 87% 29.97 in 10.0 mi Calm Calm - N/A   Partly Cloudy